Regional Weather Roundup
Issued by NWS

Home | Current Version | Previous Version | Text Only | Print | Product List | Glossary Off
Versions: 1 2 3 4 5 6 7 8 9 10 11 12 13 14 15 16 17 18 19 20 21 22 23 24 25 26 27 28 29 30 31 32 33 34 35 36 37 38 39 40 41 42 43 44 45 46 47 48 49 50

000
ASUS43 KMPX 160510
RWRMN
WEATHER ROUNDUP FOR MINNESOTA
NATIONAL WEATHER SERVICE TWIN CITIES/CHANHASSEN MN
1100 PM CST MON JAN 15 2018


NOTE: "FAIR" INDICATES FEW OR NO CLOUDS BELOW 12,000 FEET WITH NO
SIGNIFICANT WEATHER AND/OR OBSTRUCTIONS TO VISIBILITY. N/A MEANS
CURRENT SKY AND/OR WEATHER CONDITIONS ARE NOT AVAILABLE.

MNZ060>063-068>070-160600-
   Twin Cities Metro

CITY           SKY/WX    TMP DP  RH WIND       PRES   REMARKS
TWIN CITIES    MOCLDY     1  -4  79 NW13      30.57R WCI -17
ST PAUL        MOCLDY     2  -4  76 NW12      30.59R WCI -15
CRYSTAL        MOCLDY     1  -7  68 NW10      30.57R WCI -15
BLAINE         FAIR       1  -2  85 NW9       30.55S WCI -14
LAKEVILLE      MOCLDY     0  -4  85 NW12      30.56R WCI -18
EDEN PRAIRIE   MOCLDY     1  -6  72 N10       30.58R WCI -15
SOUTH ST PAUL  MOCLDY     3  -4  73 NW9       30.56R WCI -11
LAKE ELMO      FAIR       5   0  78 NW9       30.55R WCI  -9
$$
MNZ001>005-007-008-013>017-022>024-027-028-160600-
   Northwest Minnesota

CITY           SKY/WX    TMP DP  RH WIND       PRES   REMARKS
BEMIDJI        FLURRIES  -3  -6  87 N7        30.67F WCI -17
HALLOCK        FAIR     -15 -20  76 N12       30.83S WCI -36
ROSEAU         FAIR     -15 -18  84 W3        30.77S
WARROAD        FAIR     -11 -18  70 NW6       30.75S WCI -25
THIEF RVR FALL FAIR     -16 -21  78 NW6       30.77  WCI -31
CROOKSTON      FAIR     -13 -18  77 N9        30.82F HAZE    WCI -31
FOSSTON        CLOUDY   -15 -18  84 N9        30.73F WCI -33
DETROIT LAKES  CLOUDY    -9 -15  77 N14       30.70S HAZE    WCI -31
MOORHEAD       CLOUDY   -11 -17  77 N20       30.80S HAZE    WCI -36
PARK RAPIDS    CLOUDY    -3  -8  79 N8G18     30.64R WCI -18
MAHNOMEN       CLOUDY   -11 -16  78 N9        30.73S WCI -29
$$
MNZ006-009>011-018-025>026-160600-
   North Central Minnesota

CITY           SKY/WX    TMP DP  RH WIND       PRES   REMARKS
BAUDETTE       FAIR     -10 -14  82 NW8       30.70F WCI -26
FLAG ISLAND    FAIR     -13 -18  77 NW12      30.73F WCI -33
INTL FALLS     CLOUDY    -1  -6  79 NW9       30.67S WCI -16
WASKISH        CLOUDY    -4  -8  84 N5        30.70S WCI -15
BIG FORK       CLOUDY     0  -6  78 CALM      30.65R
LONGVILLE      CLOUDY    -2  -8  78 N5        30.64S WCI -12
GRAND RAPIDS   CLOUDY     0  -3  87 N10       30.63S WCI -16
CRANE LAKE     CLOUDY     0  -4  85 N5        30.67S WCI -10
ORR            CLOUDY     0  -6  78 NW3       30.61R
COOK           CLOUDY     1  -2  85 N3        30.62S
WALKER         CLOUDY    -3  -7  85 N9        30.66F WCI -20
$$
MNZ012-019>021-037-160600-
   Northeast Minnesota

CITY           SKY/WX    TMP DP  RH WIND       PRES   REMARKS
DULUTH         FLURRIES   3   1  91 N15       30.52R WCI -16
ELY            CLOUDY     1   0  92 N6        30.58S WCI -10
HIBBING        CLOUDY     1  -2  87 N12       30.59R WCI -16
EVELETH        CLOUDY     2  -3  79 N6        30.59R WCI  -9
DULUTH HARBOR  CLOUDY    12   7  79 NW12      30.59S WCI  -2
TWO HARBORS    CLOUDY    10   3  72 N8        30.51R WCI  -1
SILVER BAY     FAIR       9   5  85 N8        30.52R WCI  -4
GRAND MARAIS     N/A     15   7  70 N10G24    30.55R WCI   2
G MARAIS ARPRT FLURRIES   7   1  78 N13       30.47R WCI  -9
$$
MNZ029>031-032-039>041-046>048-054>057-064-160600-
   West Central Minnesota

CITY           SKY/WX    TMP DP  RH WIND       PRES   REMARKS
FERGUS FALLS   FAIR     -13 -18  77 NW7       30.79R WCI -29
WHEATON        CLOUDY   -11 -17  77 NW13      30.79R HAZE    WCI -32
MORRIS         CLOUDY   -11 -17  77 NW18G24   30.69R HAZE    WCI -36
ALEXANDRIA     CLOUDY   -10 -15  78 N12       30.64S WCI -30
ELBOW LAKE     CLOUDY   -12 -17  79 W14       30.71R WCI -35
WADENA         CLOUDY    -6  -9  84 N10       30.65R WCI -23
GLENWOOD       FAIR      -9 -15  77 NW10      30.65R WCI -28
APPLETON       CLOUDY    -9 -17  70 NW10      30.74R WCI -28
BENSON         CLOUDY   -11 -18  70 N15       30.70R WCI -34
ORTONVILLE     CLOUDY    -9 -17  70 NW17G23   30.73S WCI -33
MADISON        MOCLDY    -8 -15  71 NW14G20   30.75R WCI -28
WILLMAR        MOCLDY   -11 -17  77 NW14      30.67S WCI -33
$$
MNZ033>034-036-042>043-049>051-058-059-160600-
   Central Minnesota

CITY           SKY/WX    TMP DP  RH WIND       PRES   REMARKS
ST CLOUD       FAIR      -3  -8  79 N13       30.60S WCI -22
SAUK CENTRE      N/A     -5 -10  81 N8        30.63S WCI -20
PAYNESVILLE    CLOUDY    -6 -11  79 NW8       30.63S WCI -21
AITKIN         CLOUDY    -2  -8  78 N8        30.61R WCI -17
PINE RIVER     CLOUDY    -4  -9  77 N10       30.66R WCI -21
BRAINERD       CLOUDY     0  -6  76 N15       30.64R WCI -19
STAPLES        CLOUDY    -4  -8  84 N10       30.64R WCI -21
LONG PRAIRIE   CLOUDY    -4  -8  84 NW10      30.63R WCI -21
LITTLE FALLS   CLOUDY     0  -9  65 NW9G16    30.63S WCI -16
LITCHFIELD     MOCLDY    -6  -9  84 NW9       30.62S WCI -22
BUFFALO        FAIR      -1  -7  77 NW8       30.61R WCI -16
MAPLE LAKE     FAIR      -1  -5  80 MISG      30.60S
HUTCHINSON     FLURRIES  -4 -10  75 NW12      30.62S WCI -22
$$
MNZ037-044-045-052-053-160600-
   East Central Minnesota

CITY           SKY/WX    TMP DP  RH WIND       PRES   REMARKS
PRINCETON      MOCLDY     1  -6  71 NW9       30.58R WCI -14
MORA           MOCLDY     3  -2  78 N7G18     30.58S WCI  -9
CAMBRIDGE      FLURRIES   5  -4  66 N8        30.57S WCI  -8
RUSH CITY      CLOUDY     3  -2  77 N7        30.57R WCI  -9
MOOSE LAKE     FLURRIES   5   1  85 N9        30.57R WCI  -9
HINCKLEY       FAIR       5   1  85 N15G22    30.55S WCI -13
CLOQUET        CLOUDY     3   0  85 NW15      30.55R WCI -15
MCGREGOR       CLOUDY     3   0  85 N13       30.61R WCI -14
$$
MNZ071>073-080-081-089-090-097-098-160600-
   Southwest Minnesota

CITY           SKY/WX    TMP DP  RH WIND       PRES   REMARKS
MONTEVIDEO     CLEAR    -11 -17  77 N17       30.71S WCI -35
GRANITE FALLS  CLEAR     -8 -14  74 NW14G21   30.72S WCI -29
CANBY          CLOUDY    -7 -13  74 W17       30.73R WCI -29
MARSHALL       LGT SNOW -10 -15  78 NW17      30.70R WCI -34
REDWOOD FALLS  CLOUDY    -9 -14  78 NW15G23   30.68R WCI -31
OLIVIA         MOCLDY    -8 -15  71 NW16G24   30.66S WCI -30
PIPESTONE      PTCLDY    -9 -15  77 N13G22    30.61S HAZE    WCI -30
WINDOM         CLOUDY    -9 -24  49 NW18      30.61R HAZE    WCI -33
WORTHINGTON    PTCLDY   -11 -16  78 NW20      30.61R WCI -36
JACKSON        LGT SNOW  -9 -15  77 NW20G28   30.59R WCI -34
SLAYTON        LGT SNOW -10 -15  77 NW21G28   30.62R WCI -35
$$
MNZ065>067-074>077-082>085-091>093-160600-
   South Central Minnesota

CITY           SKY/WX    TMP DP  RH WIND       PRES   REMARKS
MANKATO        FLURRIES  -8 -13  78 NW15      30.61R WCI -30
NEW ULM        FLURRIES  -9 -17  70 NW17      30.64R WCI -33
ST JAMES       CLOUDY    -8 -13  77 NW18G25   30.64R HAZE    WCI -31
FAIRMONT       LGT SNOW  -8 -13  78 MISG        N/A
GLENCOE        FLURRIES  -2  -8  78 NW12      30.60R WCI -20
FARIBAULT      CLOUDY     1  -4  78 NW9G17    30.55R WCI -14
OWATONNA       LGT SNOW   0  -6  78 NW15      30.53R WCI -20
WASECA         LGT SNOW  -4  -8  84 NW14      30.57R WCI -24
ALBERT LEA     CLOUDY    -8 -13  77 NW14      30.52R HAZE    WCI -28
$$
MNZ078>079-086>088-094>096-160600-
   Southeast Minnesota

CITY           SKY/WX    TMP DP  RH WIND       PRES   REMARKS
ROCHESTER      CLOUDY     2  -2  83 NW20      30.46R FOG     WCI -19
RED WING       MOCLDY     5  -4  66 NW8       30.53R WCI  -8
STANTON        FLURRIES   4  -2  75 NW12      30.55R WCI -12
DODGE CENTER   LGT SNOW   1  -4  78 NW18      30.47R WCI -19
WINONA         CLOUDY    10   5  79 NW13        N/A  WCI  -5
PRESTON        LGT SNOW   0  -4  80 NW15      30.44S WCI -19
$$
ABBREVIATIONS USED IN REMARKS
   TC - TEMPERATURES IN CELSIUS
  WCI - WIND CHILL INDEX
   HX - HEAT INDEX
  VSB - VISIBILITY
$$



USA.gov is the U.S. government's official web portal to all federal, state and local government web resources and services.